Wind_Speed
54 55 55 55 56 56 56 56 56 56 56 56 56 56 56 55 55 54 53 52 51 51 50 49 48 47 46 45 43 41 40 39 39 38 37 37 36 36 36 35 35 35 34 34 34 34 34 34 34 34 34 35 35 35 35 35 35 35 35 35 35 36 36 36 36 36 36 37 37 37 38 38 38 39 39 39 39 40 40 40 40 40 40 40 40 40
55 56 56 56 56 56 56 57 56 56 56 56 56 56 55 55 54 53 52 51 50 49 48 48 47 45 44 42 40 39 38 37 36 35 34 34 33 33 33 32 32 32 32 31 31 31 31 32 32 32 33 33 33 33 34 34 34 34 35 35 35 35 36 36 36 37 37 37 38 38 38 39 39 39 39 39 40 40 40 40 40 40 40 40 40 40
56 56 56 57 57 56 56 56 56 55 55 55 55 55 54 53 53 52 51 50 49 48 47 45 44 43 41 39 38 36 35 34 33 32 32 31 31 30 30 29 29 29 29 29 29 29 30 30 31 31 32 32 33 33 33 34 34 34 35 35 35 36 36 36 37 37 38 38 38 39 39 39 39 39 39 39 39 39 39 39 39 40 40 40 40 40
56 56 56 56 56 56 56 55 55 55 54 54 54 54 53 52 51 51 49 48 47 46 45 43 42 40 39 37 35 34 33 32 31 30 29 28 28 27 27 27 27 27 27 27 28 28 29 30 30 31 31 32 33 33 34 34 35 35 35 36 36 36 37 37 37 38 38 38 38 38 38 38 38 38 38 38 39 39 39 39 39 39 39 39 39 39
56 56 56 56 56 55 55 54 54 53 53 53 52 52 51 50 50 49 48 47 45 44 43 41 39 38 36 35 33 32 30 29 28 27 26 26 25 25 25 25 25 26 26 27 28 28 29 30 31 31 32 33 34 34 35 35 35 36 36 36 36 37 37 38 38 38 39 39 38 38 38 38 38 38 38 38 38 39 39 39 39 39 39 39 39 39
56 55 55 55 54 54 54 53 52 52 51 51 51 50 49 49 48 47 46 45 44 42 41 39 38 36 34 33 31 30 28 27 26 25 25 24 24 24 24 25 25 26 27 27 28 29 30 30 31 32 33 33 34 34 35 35 35 35 36 36 37 37 38 38 39 39 39 39 38 38 38 38 38 38 38 38 39 39 39 39 39 39 39 39 39 39
55 54 54 53 53 53 52 51 50 50 50 50 50 49 48 47 46 45 44 43 41 40 39 37 36 34 32 31 29 28 26 25 25 24 24 23 24 24 25 25 26 27 27 28 29 30 30 31 31 32 32 33 33 33 34 34 34 35 35 36 37 37 38 39 39 39 39 39 38 38 38 38 38 38 38 38 39 39 39 39 39 39 39 39 40 40
54 53 52 52 51 52 51 50 49 48 48 48 48 47 47 46 45 43 42 41 39 38 37 36 34 32 30 28 27 26 25 24 24 24 24 24 24 25 25 26 27 28 28 29 29 30 30 30 31 31 31 31 32 32 32 32 33 33 34 35 36 37 38 39 39 39 39 39 38 38 38 38 38 38 38 38 38 38 38 38 39 39 39 39 40 40
52 52 52 51 50 50 50 49 48 47 46 46 46 45 45 44 43 42 40 39 37 36 35 35 34 32 29 27 25 24 25 25 25 24 25 25 26 26 26 27 28 28 29 29 29 29 29 29 29 29 29 29 29 30 30 31 32 32 33 35 36 37 38 39 39 39 39 38 38 38 38 38 38 37 37 37 37 38 38 38 38 38 39 39 39 40
52 51 51 51 50 49 48 47 47 46 44 44 44 43 43 42 41 41 40 38 36 34 33 33 32 31 29 26 24 23 24 25 26 26 26 26 27 27 27 28 28 28 28 28 28 27 27 27 27 27 27 28 28 28 29 30 31 32 33 34 36 37 38 39 39 38 38 38 37 37 37 37 37 36 36 36 36 37 37 37 37 37 37 37 37 38
51 50 50 49 49 48 47 46 45 44 43 43 42 42 41 39 39 39 39 38 36 34 32 32 31 30 28 27 25 24 25 26 27 27 26 26 26 26 27 27 28 27 27 26 26 25 25 25 25 26 26 26 27 27 28 29 30 31 33 34 36 37 38 38 38 38 37 37 37 36 36 36 35 35 35 35 35 35 35 35 35 35 35 35 34 34
49 49 49 48 48 47 46 45 44 43 42 41 41 41 40 39 37 37 37 37 35 34 33 32 30 29 27 27 27 27 27 27 28 28 27 26 25 25 26 27 27 26 26 25 24 23 23 24 24 24 25 25 26 27 28 29 30 31 33 34 36 37 38 38 38 37 37 36 36 35 35 34 34 34 34 34 33 33 33 33 32 32 31 31 30 30
48 48 47 47 46 45 44 43 43 42 41 40 39 39 39 38 37 36 35 35 34 33 33 32 31 29 27 27 28 29 29 30 30 29 29 27 26 25 26 27 27 26 25 24 23 23 22 23 23 24 24 25 25 26 27 28 30 31 32 34 35 36 37 37 37 37 36 36 35 34 34 33 32 32 32 32 31 31 30 29 29 28 27 26 25 25
47 47 46 46 45 44 43 42 41 40 40 38 37 37 37 36 35 34 34 34 34 33 32 32 32 30 28 27 28 29 30 31 32 31 30 28 26 26 26 27 27 26 25 24 23 23 22 23 24 24 24 24 25 26 26 27 28 30 31 33 34 35 36 36 36 36 36 35 34 33 32 31 31 31 30 29 29 28 27 26 25 24 23 22 21 20
46 45 45 44 43 42 41 40 39 39 38 36 36 35 35 35 34 33 33 34 34 33 33 33 32 31 30 28 28 29 31 33 33 33 31 29 27 26 26 27 27 26 24 24 23 23 23 24 24 24 24 24 24 25 25 26 27 28 30 31 33 34 35 35 35 35 34 34 33 32 31 30 29 29 28 27 26 25 24 23 22 21 20 19 18 17
45 44 43 42 42 41 39 38 37 37 36 35 34 34 33 33 33 33 33 34 34 34 34 34 34 33 31 29 28 29 31 34 35 35 33 30 27 26 26 27 27 26 25 24 24 24 24 24 24 24 24 24 24 24 24 24 25 26 27 29 30 32 33 33 33 33 33 32 31 30 29 28 27 27 26 25 24 23 22 21 20 19 18 18 17 17
43 42 41 41 40 39 38 36 35 34 34 33 33 32 32 32 32 33 33 34 35 35 35 36 36 35 34 31 29 29 31 34 36 36 35 32 28 26 26 27 28 27 25 25 25 25 25 25 25 24 24 23 23 23 23 23 23 24 25 26 28 29 31 31 32 32 31 30 29 28 27 27 26 26 25 24 23 22 21 21 20 19 18 18 18 18
42 41 40 39 38 37 36 35 33 33 32 32 32 32 32 32 32 33 34 35 35 36 36 36 36 36 36 34 32 31 32 34 36 37 36 33 29 26 26 27 28 27 27 26 25 25 26 25 25 24 24 23 22 22 22 22 22 22 23 24 26 27 28 30 30 30 30 29 28 27 26 26 25 25 24 24 23 22 22 21 20 20 19 19 19 19
40 39 37 37 36 36 34 33 32 31 31 32 32 32 33 33 33 34 34 35 36 36 37 37 36 36 36 36 35 34 34 35 37 37 37 34 30 27 26 27 28 28 27 27 26 26 26 26 25 24 23 22 22 21 21 21 21 21 21 22 23 24 26 27 28 29 29 28 27 26 25 25 25 25 24 24 23 23 22 22 21 21 20 20 20 20
38 37 35 34 34 34 33 31 30 30 30 31 32 33 34 34 35 35 35 36 36 36 36 36 36 36 36 36 36 35 35 36 37 38 37 35 32 28 27 28 29 29 28 27 27 27 27 26 25 24 23 22 21 21 21 20 20 20 20 20 21 22 23 25 26 27 27 27 26 25 25 25 25 25 25 24 24 23 23 22 22 21 21 21 21 21
36 35 33 32 32 32 32 31 30 29 30 31 33 34 34 35 36 36 36 36 36 36 36 36 36 36 37 37 37 36 35 36 37 38 37 36 32 29 28 29 30 30 29 28 28 27 27 27 26 24 23 22 21 21 21 20 20 20 20 20 20 21 21 23 24 26 27 26 26 25 25 25 25 25 25 25 24 24 24 23 23 22 22 22 22 22
33 32 31 30 30 30 30 30 30 30 30 31 33 34 35 36 37 37 37 37 37 37 37 37 37 37 37 37 37 36 35 35 36 37 37 36 33 30 29 30 31 31 31 30 29 29 28 28 27 25 23 22 21 21 21 20 20 20 20 20 20 20 21 21 23 25 26 26 26 25 25 26 26 26 25 25 25 24 24 24 23 23 23 24 24 24
31 30 29 29 29 29 30 30 30 31 31 32 33 35 35 36 37 37 37 37 37 37 37 37 37 37 37 37 36 35 34 33 34 35 36 36 34 32 30 31 32 32 32 31 31 30 30 29 27 25 24 22 21 21 21 21 21 21 20 20 21 21 21 22 23 24 25 26 26 26 26 26 26 26 26 25 25 25 25 24 24 25 25 25 26 26
29 28 28 28 29 29 30 31 31 32 32 33 34 34 35 35 36 36 36 36 36 36 37 37 37 37 37 36 36 34 32 31 31 33 34 35 34 33 31 31 32 33 33 32 32 32 31 30 28 26 24 23 22 21 21 21 21 21 21 21 21 21 21 22 23 24 25 26 27 27 27 27 27 27 26 26 26 26 26 26 26 27 27 28 29 29
27 28 28 28 29 30 31 31 32 32 33 33 33 33 34 34 34 34 34 34 34 35 36 37 37 37 37 37 35 33 30 28 29 30 32 34 34 33 32 32 33 34 34 33 33 33 33 31 29 26 25 24 23 22 22 21 21 21 21 21 21 21 21 22 23 24 25 26 27 28 29 29 29 28 27 27 27 27 28 28 29 29 30 31 31 31
27 27 28 29 29 30 31 31 31 31 31 32 32 33 33 33 33 32 32 32 33 34 35 36 37 38 38 37 35 33 29 27 26 28 31 33 34 34 32 32 33 35 35 35 34 34 34 33 30 28 26 25 24 23 22 21 21 20 20 20 20 20 21 21 22 24 25 26 28 29 30 30 30 30 29 29 29 29 30 31 31 32 33 33 33 34
26 27 28 29 29 30 30 30 30 30 30 30 31 32 32 33 33 33 32 32 33 34 36 37 38 38 38 38 35 32 28 25 24 26 30 33 34 34 33 33 34 36 36 36 36 36 36 34 32 30 28 26 25 23 22 22 21 21 20 20 20 20 20 21 22 23 25 26 28 29 30 31 31 31 31 31 31 32 32 33 33 34 34 35 35 35
26 27 28 28 29 29 29 29 29 28 28 29 29 30 31 32 33 33 33 34 34 35 36 37 38 39 39 38 35 32 27 24 23 26 29 32 34 35 34 35 35 37 38 38 37 36 36 35 34 32 30 28 26 24 23 23 22 22 21 20 20 20 20 20 21 23 24 26 28 29 30 31 32 33 33 33 33 34 34 35 35 35 36 37 37 37
26 27 28 28 28 28 28 28 27 27 27 27 28 29 30 32 33 33 34 34 35 36 36 37 37 38 38 37 35 31 25 23 23 26 29 32 34 35 35 35 36 37 38 39 39 37 36 35 35 33 32 30 28 26 25 24 23 23 22 21 20 20 20 20 21 22 24 25 27 29 30 32 33 33 34 34 35 35 36 36 36 37 38 38 38 38
27 27 27 27 27 27 27 26 26 26 26 27 27 29 30 31 32 33 34 34 35 35 36 36 36 37 37 36 34 30 25 22 23 26 29 32 34 35 35 36 36 37 38 40 40 40 38 35 35 34 34 32 30 29 27 26 25 24 23 22 20 19 19 20 21 22 23 25 27 28 30 31 32 34 34 35 36 36 37 37 38 38 39 39 39 39
27 27 27 27 26 26 26 25 25 25 26 26 27 28 29 30 31 32 32 33 33 34 35 35 35 35 35 35 34 31 27 24 23 26 29 32 34 35 36 36 36 36 37 39 41 42 41 38 36 35 35 35 33 31 29 28 27 26 25 23 21 20 20 20 21 22 23 24 26 27 29 30 32 33 34 35 36 37 37 37 38 39 39 40 40 40
28 27 27 26 26 25 25 25 25 25 25 26 27 27 28 29 29 30 30 31 32 33 34 34 34 34 34 33 32 31 28 26 25 26 29 32 34 35 35 36 37 36 36 37 39 42 43 42 40 38 37 37 36 34 32 30 29 28 27 25 23 21 20 20 21 22 23 24 25 26 27 29 30 32 33 34 35 36 36 37 38 38 39 40 41 42
28 27 27 26 26 25 25 25 25 25 25 26 26 26 27 27 27 28 29 30 31 31 32 33 33 33 32 32 31 30 28 26 26 27 29 32 34 35 35 36 37 37 37 37 38 39 42 43 43 41 40 39 38 36 35 33 32 31 29 27 25 23 21 21 21 21 22 23 24 25 26 27 29 30 31 32 33 34 35 36 37 38 39 40 41 42
28 27 27 26 26 25 25 25 25 25 25 25 25 25 25 26 26 27 27 28 29 30 30 31 31 32 32 31 31 29 28 26 26 27 29 31 33 35 35 36 36 37 38 38 38 39 41 42 43 43 42 41 39 38 37 36 34 32 30 28 26 24 22 21 21 21 22 22 23 24 25 26 27 29 30 30 31 32 33 34 35 36 38 39 41 42
28 27 27 26 26 25 25 24 24 24 24 24 24 24 25 25 25 26 27 27 28 28 29 29 29 30 30 31 31 30 28 26 26 26 27 30 32 34 35 36 36 37 38 39 39 40 41 42 42 43 44 43 41 39 38 36 35 32 30 28 26 25 23 22 21 21 21 21 22 23 24 25 26 27 28 29 30 31 32 33 33 35 36 38 40 41
27 27 26 26 26 25 25 24 24 24 24 24 24 24 24 25 25 26 26 26 26 27 27 27 28 28 29 30 31 30 29 27 26 26 27 29 31 33 35 35 36 36 37 39 40 41 42 43 43 43 44 44 44 41 39 36 34 32 29 27 25 23 22 21 21 21 21 21 21 22 23 24 25 26 27 28 29 29 30 31 32 33 34 36 38 40
27 26 26 26 26 25 25 24 24 23 23 23 23 24 24 25 25 26 26 26 26 26 26 26 27 27 28 29 29 30 29 28 27 26 27 28 30 32 34 35 35 35 36 38 39 40 42 43 44 44 44 44 44 43 41 37 34 31 28 26 24 23 21 21 21 21 21 20 21 21 22 23 24 25 26 27 27 28 29 29 30 31 33 34 36 37
26 26 26 26 26 25 25 24 23 23 23 23 23 24 24 25 25 25 25 25 26 26 26 26 27 27 27 27 28 28 28 28 27 27 27 28 29 31 33 34 35 35 35 36 38 39 41 42 44 44 45 44 43 42 40 37 34 31 28 25 24 23 22 21 21 21 21 21 21 21 22 23 23 24 25 26 26 27 27 28 28 30 31 32 34 35
26 26 25 25 25 25 24 23 23 22 22 23 23 24 25 25 25 26 26 26 26 26 27 27 27 27 27 27 26 27 27 27 27 27 27 28 29 31 32 34 34 35 35 36 37 38 40 41 43 44 44 44 43 41 38 35 33 31 28 26 24 23 22 22 22 22 22 22 22 22 22 23 23 24 24 25 25 26 26 26 27 28 29 31 33 34
26 25 25 24 24 24 23 22 22 22 23 23 24 24 25 26 26 26 26 26 27 27 28 28 28 28 27 26 25 25 25 26 26 27 27 28 29 30 32 33 34 35 36 36 37 38 39 40 41 42 42 43 42 41 37 34 31 30 30 29 28 25 23 22 22 22 23 23 23 24 24 24 24 24 25 25 25 25 25 26 27 27 28 30 31 32
25 25 24 23 23 22 22 22 22 22 23 23 24 25 26 27 28 28 27 27 27 28 28 28 28 28 26 25 24 24 25 25 26 26 27 28 29 30 32 33 34 35 36 37 38 38 39 39 40 41 40 40 40 39 36 33 31 30 30 31 30 28 26 24 23 23 24 24 24 25 25 25 26 25 25 25 24 25 25 26 26 27 28 29 30 31
24 23 23 22 21 21 21 21 21 22 23 24 25 27 28 28 29 29 29 29 29 28 28 29 29 28 27 25 24 23 24 25 25 26 27 28 29 31 32 33 34 35 36 37 38 38 39 39 39 39 39 38 38 37 36 33 31 30 30 30 30 29 27 25 24 23 24 25 25 26 26 27 27 26 26 25 25 24 25 25 26 27 27 28 29 30
22 21 21 21 20 21 21 21 22 23 24 25 26 27 28 29 30 30 30 30 30 29 29 30 30 30 29 27 26 24 24 24 25 26 27 29 30 31 32 33 34 34 36 37 38 38 38 38 38 37 37 36 36 36 36 34 32 30 28 28 29 29 29 27 25 24 25 25 26 26 26 27 27 27 26 25 25 25 25 25 25 26 26 27 28 29
20 20 19 20 20 20 21 22 23 24 25 26 27 27 28 29 29 30 30 30 30 30 31 31 31 31 31 30 29 28 27 26 26 26 27 29 30 31 32 33 33 34 34 35 36 37 38 37 36 35 35 35 35 35 35 34 32 30 28 26 26 27 28 27 27 26 26 25 25 25 25 26 26 26 26 25 25 24 24 24 24 25 25 26 27 27
19 19 19 19 20 21 22 23 24 25 25 26 27 27 27 28 29 29 30 31 31 32 32 33 33 34 34 33 33 32 31 29 28 27 28 28 29 30 31 32 32 33 33 34 35 35 36 35 35 34 33 33 33 34 33 33 31 29 27 25 25 25 26 26 26 26 26 26 25 24 24 25 26 26 26 25 24 23 23 22 22 23 23 24 25 26
19 19 19 20 20 21 22 23 24 25 25 26 26 27 27 28 29 29 30 31 32 33 33 34 35 35 36 36 35 35 34 32 31 29 29 28 28 29 29 30 31 31 32 32 33 33 33 33 33 32 32 32 32 32 31 30 29 28 26 25 25 25 25 24 24 25 25 25 25 24 24 25 26 26 26 25 24 22 21 20 21 21 22 23 24 25
19 19 20 20 20 21 22 23 24 25 26 26 26 27 27 28 29 30 31 32 33 34 35 35 36 36 36 36 36 36 36 35 34 32 31 30 29 29 29 29 29 30 30 31 31 30 30 30 30 31 32 33 32 30 28 26 26 26 26 26 26 26 25 25 24 24 25 25 25 25 25 25 26 26 26 25 23 21 19 19 19 20 21 22 23 24
20 20 21 21 21 22 22 23 24 25 26 26 27 27 28 29 30 31 32 33 34 35 35 36 36 36 36 36 36 36 36 36 35 34 33 32 31 30 30 30 29 29 29 29 29 28 28 28 28 29 30 31 31 30 27 25 24 25 26 26 27 27 27 26 26 26 26 26 26 26 26 27 27 27 26 25 23 21 19 18 18 20 21 22 23 24
21 21 21 21 22 22 23 24 25 26 27 27 28 28 29 30 31 33 34 34 35 35 35 36 36 36 36 35 35 35 35 35 35 35 34 34 33 33 32 31 31 30 29 28 27 27 26 26 26 27 28 30 30 30 28 26 25 26 27 27 28 29 29 29 28 28 29 28 28 27 27 27 27 27 27 27 25 22 20 18 18 19 20 22 23 25
21 21 21 22 22 23 23 24 25 26 28 29 30 30 31 32 32 33 34 34 35 35 35 35 35 35 35 35 35 34 34 34 35 34 34 34 34 34 33 33 32 31 30 29 28 27 27 27 26 25 26 28 30 31 31 30 29 29 29 29 30 31 31 32 31 31 31 30 29 28 28 27 27 27 27 28 26 24 21 19 19 19 20 22 23 24
21 21 21 21 22 23 24 25 26 28 29 30 31 32 33 33 33 34 34 34 34 34 34 34 34 35 35 35 34 34 34 34 34 34 34 34 34 33 33 32 31 30 30 29 29 29 30 30 29 27 25 26 28 31 33 33 33 33 32 31 31 32 32 33 33 33 32 31 30 29 28 28 28 27 28 28 28 26 23 21 20 19 20 21 23 24
Wind_Direction
309 309 308 308 308 307 307 306 306 305 304 303 303 303 302 302 302 302 302 301 301 300 300 300 299 299 299 298 298 297 295 293 292 291 290 288 287 286 285 284 283 282 281 281 280 279 279 278 278 277 277 277 277 276 276 276 276 276 276 276 276 276 276 275 275 274 273 273 272 271 271 270 270 269 269 269 268 268 268 268 268 268 268 268 267 267
309 308 308 308 308 307 306 306 305 305 304 304 304 303 303 303 303 302 302 302 301 301 301 300 300 300 299 299 298 296 295 293 292 291 289 288 287 285 284 283 282 281 280 280 279 278 277 277 277 276 276 276 276 275 275 275 275 275 275 275 275 274 274 274 273 272 272 271 270 270 269 269 269 269 269 269 269 269 270 270 270 270 270 269 269 269
308 308 308 308 307 307 306 306 305 305 305 304 304 304 304 303 303 303 302 302 302 301 301 301 301 300 299 298 297 296 295 293 292 291 289 288 286 285 283 282 282 281 281 280 279 279 278 278 277 277 277 277 277 277 277 277 277 276 276 276 275 275 274 273 272 272 271 271 270 270 270 270 270 270 270 270 271 271 272 272 272 272 271 271 271 270
308 308 307 307 307 306 306 305 305 305 305 304 304 304 304 304 303 303 303 302 302 302 302 301 301 300 299 298 297 296 295 294 293 291 289 288 286 285 284 283 283 282 282 281 281 280 280 280 280 280 280 280 280 280 280 279 279 278 278 277 276 276 275 274 273 272 272 271 271 271 271 271 271 272 272 273 273 274 274 274 274 274 274 273 272 272
308 307 307 307 306 305 305 305 305 305 304 304 304 304 304 304 304 303 303 303 303 302 302 301 301 300 300 299 299 298 297 296 294 292 290 289 288 287 286 285 284 284 283 283 283 282 282 282 282 282 282 282 282 281 281 280 280 279 278 278 277 276 275 274 273 273 273 272 272 273 273 273 273 274 274 275 275 276 276 276 276 276 275 275 274 273
307 307 306 306 305 305 304 304 304 304 304 304 304 304 304 304 304 304 304 303 303 303 302 302 301 301 301 301 301 300 299 297 295 293 292 290 289 288 288 287 286 285 285 284 284 284 284 284 283 283 283 282 281 281 280 279 279 278 277 276 276 275 274 274 273 273 273 273 273 274 274 274 275 275 276 276 277 277 277 277 277 276 276 275 274 273
306 306 305 305 304 304 304 304 305 305 305 305 305 305 304 304 304 304 304 304 304 303 303 303 303 303 303 303 303 303 301 298 296 294 293 292 291 290 289 289 288 287 287 286 286 286 285 285 285 284 283 282 281 280 279 278 277 276 275 275 274 273 273 273 272 272 273 273 273 274 274 275 275 276 276 277 277 277 277 277 276 276 275 275 274 273
305 304 303 303 303 303 304 305 306 306 306 306 306 305 305 304 304 304 304 304 304 305 305 305 304 304 305 305 305 304 302 299 297 295 294 294 293 293 292 291 290 290 289 288 288 287 287 286 285 284 282 281 280 279 278 277 276 275 274 273 272 272 271 271 271 271 272 272 273 273 274 274 275 276 276 276 277 276 276 276 275 275 275 274 274 274
304 303 303 303 303 304 305 306 307 307 308 307 307 306 305 305 305 305 305 305 306 307 307 306 306 306 306 307 306 305 303 301 299 298 297 297 297 296 295 294 292 291 290 289 289 288 288 286 285 284 282 282 281 280 279 277 276 275 273 272 272 271 271 270 270 271 271 272 272 273 273 274 274 275 275 275 275 275 275 275 275 274 274 274 274 274
304 304 304 305 306 307 308 308 308 308 308 308 307 307 306 306 306 307 307 307 308 308 308 307 307 307 308 308 308 306 303 301 301 300 300 300 300 299 298 295 293 292 291 290 289 289 288 287 286 285 284 284 283 282 280 279 277 276 274 273 272 271 271 271 271 271 271 272 272 273 273 273 274 274 274 274 274 274 274 274 274 274 274 275 275 275
305 306 306 307 308 309 309 310 309 309 309 308 308 308 309 309 310 309 309 309 309 310 309 308 307 308 310 310 310 309 306 302 301 300 300 300 301 300 298 296 294 293 292 292 292 292 291 289 288 287 287 286 286 284 283 281 279 277 276 274 273 273 272 272 272 272 272 272 273 273 273 274 274 274 273 273 273 273 273 273 274 274 274 275 275 275
307 307 308 308 309 310 311 311 310 310 310 310 310 311 311 312 312 311 311 310 311 311 310 309 308 310 312 313 313 312 309 305 303 302 302 302 302 302 299 297 296 295 295 295 295 295 294 292 291 291 290 290 289 287 285 283 281 279 278 276 275 274 274 274 274 273 273 273 273 273 274 273 273 272 272 271 271 271 272 272 272 273 273 273 273 274
308 308 309 310 311 312 312 312 312 312 312 313 313 312 311 311 312 311 311 310 311 311 310 309 309 311 313 314 315 314 311 308 306 305 305 306 308 307 304 301 299 299 299 299 299 299 297 296 294 294 294 293 291 289 287 285 283 281 279 278 276 276 275 275 275 274 274 274 274 274 273 273 272 270 269 269 268 269 269 269 270 270 270 271 271 271
309 310 310 311 312 313 313 313 313 313 313 313 312 311 310 310 311 311 310 310 310 310 310 309 310 312 315 317 317 316 313 311 309 307 308 310 313 313 309 305 304 303 304 303 303 302 301 299 298 297 297 295 293 291 288 286 284 282 280 278 277 277 276 276 275 275 275 275 274 274 273 271 269 267 266 265 265 265 265 265 266 266 266 267 268 269
310 311 312 312 313 313 313 313 313 312 312 312 311 310 310 310 310 310 310 310 310 311 311 311 311 313 316 319 320 319 316 314 312 311 311 313 315 316 313 308 306 306 306 306 305 305 303 302 301 300 299 297 294 292 289 286 284 283 281 280 279 278 277 277 276 276 275 275 274 273 271 268 265 263 262 261 260 260 260 260 260 261 262 263 265 267
311 312 313 313 313 313 313 313 313 312 312 311 310 310 309 309 310 311 311 310 311 312 313 313 314 315 317 319 321 322 319 316 314 314 313 314 317 318 315 310 308 308 308 308 308 307 305 303 302 301 300 298 295 293 290 288 286 285 284 283 282 281 280 279 278 277 276 275 273 271 268 264 261 259 257 256 256 255 255 255 256 257 259 261 264 266
312 313 313 313 313 313 312 312 312 312 311 310 310 309 309 310 311 311 311 312 312 313 314 315 316 317 318 319 322 323 321 318 315 314 313 314 317 318 316 311 309 309 309 309 309 308 307 305 304 303 302 300 297 293 291 289 288 288 288 287 285 284 283 281 280 278 277 275 273 269 265 261 257 254 253 252 252 251 251 252 253 255 257 260 263 265
312 313 313 313 312 312 312 312 312 312 311 310 310 310 310 310 311 311 312 312 313 314 315 316 317 318 319 320 322 325 324 319 316 314 313 314 316 317 316 312 310 309 310 310 310 309 308 307 306 306 305 302 298 295 291 290 290 290 291 290 289 287 285 283 281 279 277 275 272 267 262 257 253 251 250 249 249 249 250 251 252 255 257 260 262 264
312 312 313 312 312 311 311 311 312 312 312 311 311 311 311 311 311 312 312 312 313 314 315 316 318 318 319 320 322 325 324 320 317 314 313 313 315 317 315 312 309 308 309 310 310 310 308 308 308 308 307 304 300 295 291 290 290 291 292 292 291 290 288 285 283 280 278 275 270 265 259 254 251 249 248 248 248 248 249 251 252 255 257 259 262 264
311 312 312 312 311 310 310 312 313 313 312 312 311 311 311 312 311 311 312 313 314 315 316 317 318 318 319 319 321 324 324 320 317 314 313 313 314 315 314 311 309 308 308 310 310 310 309 309 310 310 310 306 301 296 292 290 289 291 292 293 293 291 289 287 284 281 278 275 270 264 257 252 249 248 247 247 248 248 250 251 253 255 257 260 262 264
311 311 311 311 310 310 311 312 313 313 313 312 311 311 311 311 311 312 313 314 315 316 317 317 317 318 318 319 321 323 322 319 316 313 311 311 312 313 313 311 309 308 308 310 310 310 309 310 311 312 312 309 304 298 293 290 290 290 292 292 292 291 289 286 283 281 278 275 270 263 257 252 249 247 247 247 248 249 250 252 254 256 258 260 262 264
310 310 311 311 310 310 311 312 313 313 313 312 311 311 311 312 312 313 314 315 316 316 316 316 316 316 317 318 319 321 321 318 314 311 310 309 309 311 311 310 309 308 309 310 310 310 309 310 311 313 313 311 307 302 297 293 291 290 291 291 291 289 286 284 281 279 277 274 270 264 258 253 250 248 248 248 249 250 252 253 255 257 260 262 263 265
309 309 310 311 311 311 311 312 312 313 312 312 311 311 312 312 312 313 314 314 315 314 314 314 314 315 315 316 317 318 318 315 312 309 308 307 307 308 310 310 309 308 308 309 310 309 309 309 311 312 313 312 310 306 301 297 293 292 291 291 290 288 285 281 278 276 274 272 269 265 260 256 252 251 250 251 252 253 255 257 258 260 262 264 265 267
309 310 311 311 311 312 312 312 313 313 313 313 312 312 311 310 310 311 312 312 312 312 311 312 312 313 314 314 315 316 316 313 310 307 305 305 305 307 309 310 309 308 308 309 309 309 308 309 310 312 313 313 312 309 305 301 297 294 292 290 288 286 282 279 275 273 272 270 268 266 262 258 255 254 253 254 255 257 259 260 262 264 265 266 267 268
311 311 312 312 312 313 313 313 313 313 313 312 310 309 308 307 307 307 308 308 308 308 309 309 310 312 313 314 315 315 315 312 309 306 304 303 303 305 308 309 309 308 307 308 308 308 308 309 310 312 313 313 312 310 307 304 300 297 293 290 287 283 280 276 273 271 270 269 267 266 264 261 259 257 257 257 258 260 261 263 264 266 267 268 268 269
312 312 313 313 313 313 313 312 312 311 310 309 307 306 305 305 305 305 306 307 307 308 309 310 312 313 314 315 316 316 316 313 310 306 304 303 303 304 307 308 308 308 307 307 308 309 309 310 311 313 314 313 311 309 307 305 302 299 296 292 288 284 280 276 272 269 267 266 266 265 264 263 261 260 260 260 260 261 262 264 265 266 267 268 269 269
312 312 312 312 312 311 311 310 309 308 307 306 306 305 305 306 307 308 309 310 310 310 311 312 314 315 316 316 317 318 318 316 312 308 304 303 303 304 307 308 309 309 308 309 309 310 310 311 312 313 313 312 311 309 307 307 305 303 301 297 293 289 284 279 273 269 266 264 263 263 263 263 262 262 262 261 262 262 263 264 266 267 268 268 269 270
310 310 310 310 310 310 309 309 308 308 307 307 306 306 307 308 309 310 311 312 312 312 313 314 315 316 316 317 318 319 321 320 316 310 305 304 304 306 308 310 311 311 311 310 310 310 310 311 312 313 314 313 312 311 310 310 310 308 306 303 298 294 289 283 276 271 266 263 262 261 261 261 262 262 262 262 262 263 264 265 266 267 268 269 270 271
309 309 310 310 310 310 310 310 309 309 308 308 308 308 308 309 310 311 312 313 313 313 314 315 316 316 317 317 318 320 323 325 320 313 308 306 306 307 310 311 312 312 313 312 311 310 310 311 313 315 316 315 315 315 314 314 313 311 309 305 300 296 291 285 278 272 267 263 261 260 260 260 260 261 261 262 262 263 264 265 266 267 268 270 271 272
311 311 312 312 312 312 312 311 311 310 309 309 309 309 309 310 310 311 312 313 313 313 314 314 315 316 317 317 318 320 324 327 324 317 312 309 309 309 311 312 312 314 314 314 313 312 311 312 315 317 318 317 317 317 317 317 315 314 311 307 302 297 292 286 280 273 267 263 261 259 259 259 259 260 260 261 262 263 264 265 266 268 269 270 272 273
315 315 315 315 315 314 313 313 312 311 310 309 309 309 309 309 310 310 311 312 313 313 313 314 315 316 317 317 318 320 324 328 326 320 314 311 310 310 312 312 313 315 316 316 316 314 314 314 316 318 318 318 318 319 319 319 318 316 313 310 305 300 295 289 282 274 267 263 260 259 258 258 258 259 260 260 261 263 264 265 266 268 270 271 272 273
318 318 317 317 316 315 314 313 312 311 310 309 308 308 308 308 309 310 311 312 312 313 313 314 315 315 316 316 317 319 323 327 326 321 316 313 312 311 313 314 314 316 317 317 316 315 315 315 316 318 318 319 320 320 321 321 319 318 316 313 309 304 299 293 285 277 269 264 261 259 258 258 258 259 259 260 261 262 264 265 266 268 269 271 272 273
320 319 319 318 317 316 315 313 312 311 310 309 308 307 307 308 309 310 311 312 312 313 314 314 314 315 315 315 316 318 322 325 325 322 318 315 313 313 314 315 316 317 317 317 316 315 315 316 317 318 318 319 320 321 321 321 320 319 318 315 312 308 303 297 289 281 273 267 262 260 259 258 258 259 259 260 261 262 263 265 266 267 269 270 271 272
320 319 318 317 316 315 314 313 311 310 309 308 308 308 308 308 309 310 311 312 312 313 314 314 315 315 315 315 316 318 321 324 324 322 318 316 314 314 314 315 316 317 317 317 317 316 316 316 317 318 318 319 319 321 321 321 321 320 319 318 315 311 306 301 294 285 277 270 265 262 260 259 259 259 260 260 261 262 263 264 265 267 268 269 271 272
320 318 317 315 314 313 312 312 311 310 309 309 308 308 309 309 310 311 312 313 313 314 314 314 315 315 315 315 316 318 321 323 323 321 318 316 314 314 314 315 316 317 317 317 317 317 316 316 317 318 318 318 319 320 321 321 321 321 321 319 317 313 309 304 298 290 282 275 270 266 263 261 260 260 260 260 261 262 262 263 264 265 266 268 270 271
317 316 314 313 312 311 311 311 310 310 309 309 309 309 310 311 312 313 314 315 315 316 315 315 315 315 315 316 316 318 320 322 322 321 318 316 314 314 314 315 316 317 317 316 317 316 316 316 316 317 317 317 318 319 320 321 322 322 322 320 318 314 311 307 301 295 288 281 275 270 267 264 263 262 261 261 261 261 262 262 263 264 265 266 268 269
315 314 312 311 311 311 311 311 311 311 311 311 311 311 312 313 314 315 316 317 317 317 316 315 315 315 315 316 317 317 319 320 320 319 317 315 314 313 313 314 315 316 316 316 316 315 315 315 315 315 316 316 317 318 320 321 322 323 323 322 319 316 313 309 304 299 293 287 281 276 272 269 267 265 264 263 263 263 263 263 264 264 265 266 267 268
314 313 312 311 311 312 312 313 313 313 313 314 314 314 314 315 316 317 318 318 318 317 316 315 315 315 315 316 316 317 317 317 317 316 315 314 313 313 313 313 314 315 315 315 314 314 314 314 314 314 315 315 316 317 319 320 322 324 324 322 320 317 315 312 307 303 298 293 287 282 278 275 272 270 268 267 266 266 266 265 265 266 266 266 267 267
314 314 313 313 314 315 315 316 316 316 316 316 315 315 315 316 317 317 318 318 318 317 316 315 315 315 316 316 317 316 316 315 314 313 313 312 312 312 312 312 313 314 314 314 313 313 313 313 313 313 314 315 315 316 318 320 323 325 324 322 319 318 316 313 310 306 302 298 293 289 285 281 279 277 275 273 272 272 271 269 268 268 268 268 268 268
316 316 316 317 318 319 320 320 319 318 318 317 316 316 316 316 317 317 317 318 317 317 316 315 315 316 317 318 318 317 316 314 312 311 311 310 310 311 311 312 313 313 313 313 312 312 312 312 312 313 313 314 315 316 318 321 324 326 325 322 320 319 317 314 311 307 303 299 296 293 290 287 284 282 280 279 277 276 275 273 271 270 269 269 269 269
319 320 320 321 322 322 322 322 321 319 318 318 318 317 317 317 317 318 318 319 319 318 317 316 316 317 318 319 320 318 316 314 312 310 310 310 310 310 311 312 312 313 313 312 312 312 312 312 312 313 313 314 315 316 318 321 325 327 325 322 319 317 315 313 310 306 302 299 297 295 292 290 288 286 284 283 281 279 277 276 274 273 271 271 270 270
323 323 324 325 325 325 324 322 321 320 319 320 320 320 320 320 321 321 321 322 322 321 321 320 319 319 320 321 321 320 317 314 312 311 311 310 311 311 311 312 312 312 312 312 312 312 312 312 312 313 314 315 316 316 318 322 324 325 323 319 316 313 311 309 307 305 302 299 297 296 294 293 291 289 287 285 283 281 279 278 277 276 274 273 271 270
325 326 327 327 327 326 325 324 323 322 322 322 322 323 323 324 324 325 325 325 325 325 325 324 323 322 322 322 322 321 318 316 314 313 312 312 312 312 312 312 312 312 311 311 312 312 312 312 313 314 315 316 316 317 318 321 322 321 319 316 313 310 308 307 306 304 301 299 298 297 295 294 293 291 289 287 284 283 281 280 278 276 274 272 271 269
327 328 329 329 328 327 326 326 326 325 325 325 325 326 327 328 328 328 328 328 328 327 327 326 324 323 323 323 322 322 320 318 317 316 315 314 314 314 313 313 312 312 311 311 311 312 312 312 313 314 316 316 316 316 317 318 318 317 315 313 310 309 308 307 306 303 300 298 297 297 296 295 294 292 289 287 286 284 282 280 277 274 272 270 269 268
329 330 330 330 330 329 329 328 328 327 327 327 328 329 330 331 331 330 330 329 328 328 327 326 324 323 323 323 323 322 321 321 320 320 319 318 317 316 315 314 313 312 311 310 310 311 311 312 314 315 316 316 316 315 315 316 315 314 313 312 309 307 305 305 304 303 302 300 299 299 300 299 297 294 292 289 287 285 283 280 277 273 270 268 268 268
330 330 331 331 332 331 331 330 329 329 329 330 331 332 333 333 332 331 330 329 328 327 326 325 324 323 322 323 323 323 323 323 323 324 323 322 321 319 317 315 313 312 311 310 310 310 311 312 314 315 316 315 314 314 315 315 315 315 314 313 311 308 306 305 305 305 305 305 304 304 304 303 301 299 296 294 291 288 284 281 278 275 272 271 270 271
332 332 333 333 333 333 332 331 331 330 331 332 333 333 334 333 332 331 330 329 327 326 325 324 323 323 323 323 323 323 323 324 325 326 327 326 325 323 320 318 315 313 312 311 311 310 311 312 313 315 315 315 315 315 316 316 317 318 318 317 315 313 311 310 310 310 310 309 309 309 309 307 305 303 300 297 294 290 286 283 280 279 277 276 276 275
335 335 335 335 335 334 334 333 333 332 333 333 333 334 334 334 333 331 330 328 327 326 325 324 324 323 323 324 324 324 325 325 326 327 328 328 327 325 323 320 318 316 314 312 311 311 311 312 313 314 315 316 318 319 319 321 322 323 323 322 320 318 316 315 315 315 315 314 314 313 313 311 309 307 304 300 297 293 290 286 284 283 283 282 281 280
338 337 337 337 337 336 336 335 334 334 334 334 334 334 334 334 333 332 330 329 327 326 326 325 325 324 325 325 325 326 326 326 327 327 328 328 328 326 325 323 321 318 316 314 313 312 312 312 313 316 319 322 324 325 326 327 329 329 328 326 325 323 321 320 320 319 318 317 316 315 314 313 311 309 306 303 300 297 295 292 290 289 288 286 285 283
340 339 339 338 338 338 337 337 336 335 334 334 334 334 335 334 334 332 331 329 328 327 327 326 326 326 326 326 326 326 326 326 327 328 328 328 328 327 326 324 323 321 319 317 316 315 315 315 316 319 325 329 331 331 332 333 334 333 332 330 328 326 324 322 321 320 319 317 317 316 315 313 312 309 306 304 302 301 300 298 296 293 291 289 286 284
343 342 341 340 340 339 338 337 336 335 334 334 335 335 335 335 334 333 331 330 329 328 327 327 327 326 326 326 327 327 327 327 328 328 329 328 328 327 326 325 324 323 321 320 320 320 321 321 321 324 330 335 336 336 336 336 336 335 333 330 329 326 324 322 320 319 318 317 316 316 315 313 311 308 306 304 303 302 302 301 299 297 294 291 288 285
Height
2987 2986 2984 2982 2980 2978 2976 2975 2974 2971 2969 2967 2966 2964 2962 2960 2958 2956 2955 2953 2951 2949 2947 2945 2943 2942 2941 2939 2938 2936 2935 2933 2931 2930 2928 2926 2925 2924 2922 2921 2919 2918 2917 2916 2915 2914 2913 2912 2911 2910 2909 2908 2907 2907 2906 2906 2905 2904 2904 2903 2902 2902 2901 2901 2901 2900 2900 2899 2898 2898 2897 2897 2896 2896 2896 2896 2896 2896 2896 2896 2896 2896 2896 2896 2896 2897
2983 2981 2980 2978 2976 2974 2972 2970 2969 2967 2964 2962 2960 2959 2957 2955 2953 2951 2950 2948 2946 2944 2943 2941 2939 2938 2936 2935 2934 2933 2931 2929 2928 2926 2925 2923 2922 2920 2919 2918 2916 2915 2914 2913 2912 2911 2910 2909 2908 2907 2906 2905 2905 2904 2903 2902 2902 2901 2901 2900 2899 2899 2898 2898 2897 2896 2896 2895 2895 2894 2894 2893 2893 2893 2893 2892 2892 2892 2893 2893 2893 2893 2893 2893 2893 2893
2980 2977 2976 2974 2972 2970 2967 2966 2964 2962 2960 2958 2956 2954 2952 2951 2949 2947 2946 2944 2942 2940 2938 2937 2936 2934 2933 2931 2931 2929 2928 2926 2925 2923 2922 2920 2919 2917 2916 2915 2913 2912 2911 2910 2909 2908 2907 2906 2905 2904 2903 2902 2902 2901 2900 2899 2899 2898 2897 2896 2896 2896 2895 2894 2893 2893 2892 2891 2891 2891 2890 2890 2890 2890 2889 2889 2889 2889 2889 2889 2889 2889 2889 2889 2890 2890
2976 2973 2971 2970 2968 2966 2963 2962 2960 2957 2956 2954 2951 2950 2948 2946 2944 2942 2941 2940 2938 2936 2934 2933 2932 2931 2929 2928 2927 2926 2924 2923 2921 2920 2919 2917 2916 2914 2913 2912 2911 2910 2909 2907 2906 2906 2904 2903 2902 2901 2901 2900 2899 2898 2897 2896 2895 2895 2894 2893 2892 2892 2891 2890 2890 2889 2888 2888 2887 2887 2887 2886 2886 2886 2886 2886 2886 2886 2886 2886 2886 2886 2886 2886 2886 2886
2972 2969 2967 2965 2963 2961 2960 2958 2956 2954 2952 2950 2948 2946 2944 2942 2940 2938 2937 2935 2934 2932 2931 2930 2928 2927 2926 2925 2923 2922 2921 2920 2918 2917 2916 2914 2913 2911 2910 2909 2908 2907 2906 2905 2904 2903 2902 2901 2900 2899 2898 2897 2896 2895 2894 2893 2892 2891 2890 2890 2889 2888 2887 2886 2886 2885 2885 2884 2884 2884 2884 2883 2883 2883 2883 2883 2883 2882 2882 2882 2882 2882 2881 2881 2881 2881
2968 2966 2963 2961 2959 2958 2956 2954 2952 2951 2948 2946 2944 2942 2940 2938 2936 2935 2933 2931 2930 2929 2927 2926 2925 2924 2923 2921 2920 2919 2918 2916 2915 2914 2912 2911 2910 2909 2908 2906 2906 2905 2903 2902 2901 2900 2899 2898 2897 2896 2895 2894 2892 2891 2890 2889 2888 2888 2887 2886 2885 2884 2883 2883 2882 2881 2881 2881 2881 2881 2881 2880 2880 2880 2880 2880 2879 2879 2879 2878 2878 2878 2877 2877 2877 2877
2964 2962 2961 2958 2956 2954 2952 2951 2949 2947 2944 2941 2939 2938 2936 2934 2933 2931 2930 2928 2926 2925 2924 2923 2922 2921 2920 2918 2917 2916 2915 2913 2912 2911 2910 2909 2907 2906 2905 2904 2903 2902 2901 2900 2898 2897 2896 2895 2894 2893 2892 2891 2889 2888 2887 2886 2885 2884 2883 2882 2881 2881 2880 2879 2878 2878 2878 2878 2878 2877 2877 2877 2877 2877 2876 2876 2876 2875 2875 2875 2874 2874 2874 2873 2873 2873
2960 2958 2957 2955 2953 2950 2948 2947 2946 2943 2941 2938 2935 2933 2932 2930 2929 2928 2927 2925 2923 2922 2921 2919 2918 2917 2917 2916 2914 2913 2911 2910 2909 2908 2907 2906 2905 2904 2903 2901 2900 2899 2898 2897 2896 2895 2893 2892 2891 2890 2889 2887 2886 2885 2884 2883 2882 2881 2880 2879 2878 2877 2876 2876 2875 2875 2875 2875 2875 2874 2874 2874 2874 2873 2873 2873 2872 2872 2871 2871 2871 2870 2870 2870 2870 2869
2957 2955 2952 2951 2949 2947 2945 2943 2941 2940 2938 2935 2932 2930 2928 2926 2925 2924 2923 2922 2921 2919 2918 2916 2915 2914 2914 2913 2912 2911 2909 2907 2906 2905 2904 2903 2901 2901 2900 2898 2897 2896 2895 2894 2893 2892 2891 2889 2888 2887 2886 2884 2883 2882 2881 2880 2879 2878 2876 2876 2875 2874 2873 2872 2872 2872 2871 2871 2871 2871 2871 2871 2871 2870 2870 2869 2869 2868 2868 2867 2867 2866 2866 2866 2866 2866
2953 2951 2949 2946 2945 2943 2942 2940 2937 2936 2934 2932 2929 2926 2925 2923 2921 2920 2918 2918 2918 2917 2915 2913 2912 2911 2911 2910 2909 2908 2906 2905 2903 2902 2901 2900 2899 2897 2896 2895 2894 2893 2892 2891 2890 2889 2888 2886 2885 2884 2882 2881 2880 2879 2878 2876 2876 2874 2873 2872 2871 2870 2869 2869 2869 2869 2869 2869 2868 2868 2868 2868 2867 2867 2866 2866 2865 2865 2864 2864 2863 2863 2863 2862 2862 2862
2948 2946 2945 2943 2941 2939 2938 2936 2934 2932 2930 2928 2926 2923 2921 2920 2919 2917 2915 2913 2913 2913 2912 2911 2909 2909 2908 2906 2906 2905 2904 2902 2900 2899 2899 2898 2897 2895 2894 2892 2891 2890 2889 2888 2887 2886 2885 2884 2882 2881 2880 2879 2877 2876 2875 2874 2872 2871 2870 2869 2868 2867 2866 2866 2866 2866 2866 2866 2865 2865 2865 2864 2864 2864 2863 2862 2862 2861 2861 2861 2860 2860 2860 2859 2859 2859
2945 2943 2941 2939 2937 2936 2934 2932 2930 2928 2926 2925 2923 2920 2918 2916 2916 2915 2913 2911 2910 2909 2908 2907 2906 2906 2906 2904 2902 2901 2900 2899 2897 2896 2895 2895 2894 2893 2891 2889 2888 2887 2886 2885 2884 2883 2882 2881 2879 2878 2877 2876 2875 2873 2872 2871 2869 2868 2867 2866 2864 2863 2863 2862 2862 2862 2862 2862 2862 2862 2861 2861 2861 2860 2860 2859 2859 2858 2858 2858 2857 2857 2857 2856 2856 2856
2941 2939 2938 2936 2934 2932 2931 2929 2926 2924 2922 2921 2920 2918 2916 2914 2913 2912 2911 2908 2907 2906 2906 2904 2903 2903 2903 2902 2901 2898 2896 2895 2893 2892 2891 2891 2891 2889 2887 2886 2884 2883 2883 2882 2881 2880 2879 2878 2876 2876 2874 2873 2872 2871 2869 2868 2866 2865 2864 2862 2861 2860 2860 2859 2859 2859 2859 2859 2859 2859 2858 2858 2857 2857 2857 2856 2856 2856 2856 2855 2855 2855 2854 2854 2854 2854
2938 2936 2934 2932 2931 2929 2928 2926 2924 2922 2920 2919 2917 2916 2914 2912 2911 2910 2908 2906 2905 2904 2903 2901 2900 2900 2900 2900 2898 2896 2893 2891 2889 2888 2888 2888 2888 2886 2884 2882 2881 2881 2880 2879 2878 2877 2876 2875 2874 2873 2872 2871 2869 2868 2866 2865 2863 2862 2861 2859 2858 2857 2856 2856 2856 2856 2856 2856 2856 2855 2855 2855 2854 2854 2854 2854 2853 2853 2853 2853 2852 2852 2852 2852 2851 2851
2935 2933 2931 2929 2928 2926 2925 2923 2921 2920 2918 2916 2915 2913 2911 2910 2909 2908 2906 2904 2902 2901 2901 2899 2898 2897 2897 2897 2896 2894 2891 2888 2886 2885 2884 2885 2885 2884 2881 2879 2878 2877 2877 2876 2875 2874 2874 2872 2871 2870 2869 2868 2866 2865 2864 2862 2861 2859 2858 2857 2856 2854 2854 2853 2853 2853 2853 2853 2852 2852 2852 2851 2851 2851 2851 2851 2851 2851 2851 2850 2850 2850 2850 2849 2849 2849
2932 2931 2929 2927 2925 2924 2922 2921 2919 2917 2916 2914 2913 2911 2910 2908 2906 2905 2904 2902 2900 2899 2897 2896 2895 2894 2894 2894 2894 2892 2889 2885 2882 2881 2881 2881 2882 2881 2879 2876 2875 2874 2874 2874 2873 2871 2871 2870 2868 2867 2866 2865 2864 2862 2861 2860 2858 2857 2856 2854 2853 2852 2851 2850 2850 2850 2850 2850 2849 2849 2849 2849 2848 2848 2848 2848 2848 2848 2848 2848 2848 2847 2847 2847 2847 2846
2929 2928 2926 2924 2922 2921 2920 2919 2917 2916 2914 2912 2911 2909 2908 2906 2905 2903 2901 2900 2898 2897 2895 2894 2892 2890 2889 2890 2891 2890 2888 2884 2880 2878 2878 2878 2879 2879 2877 2874 2872 2871 2871 2871 2870 2869 2868 2867 2866 2865 2864 2863 2861 2860 2858 2857 2856 2854 2853 2851 2850 2849 2848 2847 2847 2847 2847 2846 2846 2846 2846 2846 2846 2845 2845 2845 2845 2845 2845 2845 2845 2845 2845 2845 2844 2844
2927 2926 2924 2922 2920 2919 2918 2916 2915 2913 2911 2910 2908 2907 2906 2904 2903 2901 2900 2898 2896 2895 2893 2892 2891 2889 2887 2886 2886 2886 2886 2882 2878 2876 2875 2875 2876 2876 2875 2872 2870 2869 2868 2868 2867 2866 2865 2864 2863 2862 2861 2860 2859 2857 2856 2855 2853 2852 2851 2849 2848 2846 2845 2845 2844 2844 2844 2843 2843 2843 2843 2843 2843 2843 2843 2843 2843 2843 2843 2842 2842 2842 2842 2842 2842 2841
2924 2923 2922 2920 2918 2916 2915 2915 2913 2911 2909 2907 2906 2905 2903 2902 2901 2899 2898 2896 2895 2893 2891 2890 2888 2887 2885 2884 2883 2883 2882 2879 2876 2873 2872 2872 2872 2873 2872 2870 2868 2866 2866 2866 2865 2864 2862 2861 2861 2860 2859 2858 2856 2855 2854 2852 2851 2850 2848 2847 2846 2844 2843 2842 2841 2841 2841 2841 2840 2840 2840 2840 2840 2840 2840 2840 2840 2840 2840 2840 2840 2840 2839 2839 2839 2839
2922 2921 2920 2919 2916 2914 2913 2912 2911 2910 2908 2906 2904 2902 2901 2899 2898 2897 2896 2894 2892 2891 2889 2888 2886 2884 2883 2881 2881 2880 2879 2876 2873 2871 2869 2869 2869 2870 2869 2867 2865 2864 2863 2863 2862 2861 2860 2859 2858 2858 2857 2856 2854 2853 2851 2850 2849 2847 2846 2845 2843 2842 2841 2840 2839 2838 2837 2837 2837 2837 2837 2837 2837 2837 2837 2837 2837 2837 2837 2837 2837 2837 2837 2836 2836 2836
2920 2919 2918 2917 2915 2913 2911 2910 2909 2908 2906 2904 2902 2900 2899 2897 2896 2894 2893 2891 2890 2888 2887 2886 2884 2882 2881 2880 2878 2878 2877 2875 2871 2868 2866 2866 2866 2867 2866 2865 2862 2861 2860 2860 2860 2858 2857 2856 2856 2855 2854 2853 2852 2851 2849 2848 2846 2845 2844 2842 2841 2840 2838 2837 2836 2835 2835 2835 2835 2835 2835 2835 2835 2835 2835 2835 2835 2835 2835 2834 2834 2834 2834 2834 2834 2833
2918 2917 2916 2915 2913 2911 2910 2908 2907 2906 2905 2903 2901 2898 2896 2895 2893 2891 2890 2889 2888 2886 2885 2883 2882 2881 2880 2878 2877 2876 2876 2873 2870 2866 2864 2862 2863 2864 2864 2862 2860 2858 2857 2857 2856 2856 2854 2854 2853 2852 2852 2851 2850 2848 2847 2846 2844 2843 2842 2840 2839 2838 2836 2835 2834 2833 2832 2832 2832 2832 2832 2832 2832 2832 2832 2832 2832 2832 2832 2832 2831 2831 2831 2831 2831 2831
2917 2916 2914 2913 2911 2910 2908 2906 2905 2904 2903 2901 2899 2897 2895 2893 2892 2890 2889 2887 2886 2884 2882 2881 2880 2879 2878 2877 2876 2875 2874 2872 2869 2865 2862 2860 2860 2860 2861 2859 2857 2856 2854 2854 2853 2852 2851 2851 2851 2850 2849 2848 2847 2846 2844 2843 2842 2841 2839 2838 2837 2836 2834 2833 2831 2831 2830 2830 2829 2829 2829 2829 2829 2829 2829 2829 2829 2829 2829 2829 2829 2828 2828 2828 2828 2827
2915 2914 2912 2911 2909 2908 2906 2905 2903 2901 2900 2899 2897 2896 2894 2893 2891 2889 2887 2886 2884 2882 2881 2879 2878 2877 2876 2876 2875 2874 2873 2871 2867 2864 2861 2859 2857 2857 2858 2856 2855 2852 2851 2851 2850 2849 2848 2847 2847 2847 2846 2846 2845 2843 2842 2841 2840 2838 2837 2836 2835 2833 2832 2831 2829 2828 2827 2827 2826 2826 2826 2826 2826 2826 2826 2826 2826 2826 2826 2826 2826 2826 2825 2825 2825 2824
2913 2912 2910 2909 2907 2906 2904 2903 2901 2900 2899 2898 2896 2895 2893 2891 2890 2888 2887 2885 2883 2881 2880 2878 2876 2875 2874 2873 2872 2872 2871 2869 2866 2863 2860 2857 2855 2855 2855 2854 2852 2850 2848 2848 2847 2846 2844 2844 2844 2844 2843 2843 2842 2841 2840 2838 2837 2836 2835 2833 2832 2831 2829 2828 2827 2826 2825 2824 2824 2824 2823 2823 2823 2823 2823 2823 2823 2823 2823 2823 2823 2822 2822 2822 2821 2821
2911 2910 2908 2907 2906 2904 2903 2901 2900 2899 2897 2896 2893 2891 2890 2889 2887 2886 2886 2884 2882 2880 2878 2876 2875 2873 2872 2871 2870 2869 2869 2867 2865 2862 2858 2855 2853 2852 2852 2852 2850 2847 2845 2844 2843 2842 2841 2840 2840 2841 2840 2840 2839 2838 2837 2836 2835 2833 2832 2831 2829 2828 2827 2826 2825 2824 2823 2822 2821 2821 2821 2820 2820 2820 2820 2820 2820 2820 2820 2820 2820 2819 2819 2818 2818 2817
2910 2909 2907 2906 2904 2903 2901 2900 2899 2897 2896 2894 2892 2890 2888 2886 2885 2884 2883 2882 2880 2878 2876 2874 2872 2871 2869 2868 2867 2866 2866 2865 2863 2860 2857 2853 2851 2849 2849 2849 2847 2845 2842 2841 2840 2839 2837 2836 2836 2837 2837 2836 2836 2835 2834 2833 2831 2830 2829 2828 2827 2826 2824 2823 2822 2821 2820 2819 2819 2818 2818 2818 2817 2817 2817 2817 2817 2817 2817 2817 2816 2816 2816 2815 2814 2814
2909 2908 2906 2905 2903 2901 2900 2899 2897 2896 2894 2892 2891 2889 2887 2885 2883 2882 2881 2879 2878 2876 2874 2872 2870 2868 2866 2865 2865 2864 2864 2863 2861 2858 2855 2852 2849 2847 2846 2846 2844 2842 2840 2837 2836 2835 2835 2834 2833 2833 2833 2833 2832 2831 2831 2830 2828 2827 2826 2825 2824 2823 2822 2821 2819 2818 2817 2816 2816 2816 2815 2815 2815 2814 2814 2814 2814 2814 2814 2813 2813 2813 2812 2811 2811 2810
2908 2906 2905 2903 2902 2900 2898 2897 2896 2894 2893 2891 2889 2887 2886 2884 2882 2880 2879 2877 2876 2874 2872 2871 2869 2867 2865 2863 2862 2862 2862 2861 2859 2856 2853 2850 2847 2845 2844 2843 2841 2840 2837 2834 2832 2831 2831 2831 2830 2829 2829 2829 2828 2828 2827 2826 2825 2824 2823 2822 2821 2820 2819 2817 2816 2815 2814 2814 2813 2813 2812 2812 2812 2811 2811 2811 2811 2811 2811 2810 2810 2809 2808 2808 2807 2806
2906 2905 2903 2902 2900 2899 2897 2896 2894 2893 2891 2890 2888 2886 2885 2883 2881 2879 2877 2876 2874 2872 2871 2869 2867 2865 2863 2861 2860 2859 2860 2860 2858 2854 2851 2848 2845 2843 2842 2841 2839 2838 2836 2832 2829 2826 2826 2826 2827 2826 2825 2825 2825 2824 2824 2823 2822 2821 2820 2819 2818 2817 2816 2814 2813 2812 2811 2811 2810 2810 2809 2809 2809 2808 2808 2808 2808 2808 2807 2807 2807 2806 2805 2804 2804 2803
2904 2903 2901 2900 2898 2897 2896 2894 2893 2891 2890 2889 2887 2885 2883 2881 2880 2878 2876 2875 2873 2871 2869 2867 2865 2864 2862 2860 2857 2856 2856 2857 2856 2853 2849 2846 2843 2841 2840 2838 2837 2836 2835 2832 2828 2824 2821 2821 2822 2823 2822 2821 2821 2821 2820 2820 2818 2817 2816 2815 2814 2813 2812 2811 2810 2809 2808 2807 2807 2807 2806 2806 2806 2806 2805 2805 2805 2805 2805 2804 2804 2802 2801 2801 2800 2800
2902 2901 2899 2898 2896 2895 2894 2892 2891 2890 2888 2887 2886 2884 2882 2881 2879 2877 2875 2873 2871 2869 2867 2865 2863 2862 2860 2858 2856 2855 2854 2854 2853 2851 2848 2845 2841 2839 2838 2836 2835 2833 2833 2831 2829 2825 2820 2817 2816 2818 2818 2817 2817 2816 2816 2816 2815 2814 2813 2811 2811 2810 2809 2808 2806 2805 2805 2804 2804 2804 2803 2803 2803 2802 2802 2802 2802 2801 2801 2801 2800 2799 2798 2797 2796 2796
2900 2898 2897 2896 2895 2893 2892 2891 2890 2888 2887 2886 2884 2882 2881 2879 2877 2876 2874 2872 2870 2867 2865 2863 2861 2860 2858 2856 2855 2854 2853 2852 2851 2849 2846 2843 2840 2837 2836 2835 2833 2831 2830 2829 2827 2825 2821 2817 2815 2814 2813 2813 2813 2813 2812 2812 2811 2811 2809 2808 2807 2806 2805 2804 2803 2802 2801 2801 2801 2801 2801 2800 2800 2800 2799 2799 2799 2798 2798 2798 2797 2796 2795 2794 2793 2792
2898 2896 2895 2894 2893 2891 2891 2889 2888 2886 2885 2884 2882 2881 2879 2877 2876 2874 2872 2870 2868 2866 2864 2861 2860 2858 2856 2854 2853 2852 2851 2851 2849 2847 2845 2842 2839 2836 2834 2833 2831 2830 2827 2826 2824 2822 2820 2817 2814 2812 2810 2809 2809 2810 2809 2809 2808 2807 2806 2805 2804 2802 2802 2801 2800 2799 2798 2798 2798 2798 2797 2797 2797 2796 2796 2796 2796 2795 2795 2795 2794 2793 2792 2791 2790 2788
2896 2895 2893 2892 2891 2890 2889 2887 2886 2885 2883 2882 2880 2879 2877 2875 2874 2872 2870 2868 2866 2864 2862 2860 2858 2856 2854 2852 2851 2849 2849 2848 2848 2846 2844 2841 2838 2835 2833 2831 2830 2828 2826 2824 2822 2820 2817 2815 2813 2811 2808 2806 2806 2806 2806 2806 2805 2804 2803 2802 2801 2800 2798 2797 2796 2796 2795 2795 2795 2795 2794 2794 2793 2793 2793 2793 2792 2792 2792 2791 2791 2790 2789 2788 2786 2785
2894 2893 2892 2890 2889 2888 2887 2886 2884 2883 2881 2880 2878 2876 2875 2873 2871 2870 2868 2866 2865 2863 2861 2859 2857 2855 2853 2851 2849 2847 2846 2846 2845 2844 2842 2840 2837 2835 2832 2830 2829 2827 2825 2822 2820 2818 2815 2812 2811 2809 2807 2805 2803 2802 2802 2802 2802 2801 2800 2799 2798 2797 2796 2795 2794 2792 2792 2791 2791 2791 2791 2791 2790 2790 2790 2790 2789 2789 2788 2788 2788 2787 2786 2785 2783 2782
2893 2891 2890 2889 2887 2886 2885 2883 2882 2881 2879 2878 2876 2875 2873 2871 2870 2868 2866 2865 2863 2861 2859 2857 2856 2854 2852 2850 2848 2846 2845 2843 2843 2842 2840 2838 2836 2834 2831 2829 2827 2826 2824 2821 2819 2816 2814 2811 2808 2806 2805 2803 2801 2799 2798 2798 2798 2798 2797 2796 2795 2794 2793 2792 2791 2790 2789 2788 2788 2788 2788 2787 2787 2786 2786 2786 2786 2785 2785 2785 2784 2784 2782 2781 2780 2779
2891 2890 2888 2887 2886 2884 2883 2881 2880 2878 2877 2876 2874 2872 2871 2869 2868 2866 2864 2862 2861 2859 2857 2856 2854 2853 2851 2849 2847 2846 2844 2842 2841 2840 2838 2837 2835 2833 2830 2827 2826 2824 2823 2821 2818 2815 2813 2810 2807 2804 2802 2801 2800 2798 2797 2796 2795 2794 2794 2793 2792 2791 2791 2790 2788 2787 2786 2786 2785 2785 2784 2784 2783 2783 2782 2782 2782 2781 2781 2781 2781 2780 2779 2778 2776 2776
2890 2888 2887 2885 2884 2882 2881 2879 2878 2876 2875 2874 2872 2870 2869 2867 2866 2864 2862 2861 2859 2857 2856 2854 2852 2851 2849 2848 2846 2845 2843 2841 2840 2838 2837 2835 2833 2831 2829 2826 2824 2822 2821 2819 2817 2815 2812 2809 2806 2804 2801 2798 2796 2796 2795 2794 2793 2792 2790 2789 2789 2789 2788 2787 2786 2785 2784 2783 2782 2781 2781 2781 2780 2779 2779 2779 2778 2778 2777 2777 2777 2776 2775 2774 2773 2772
2888 2886 2885 2884 2882 2881 2879 2877 2876 2874 2873 2871 2870 2868 2867 2865 2864 2862 2861 2859 2857 2856 2854 2852 2850 2849 2847 2846 2845 2843 2842 2840 2838 2837 2835 2833 2832 2830 2827 2825 2822 2820 2819 2817 2815 2813 2811 2808 2805 2803 2801 2798 2795 2793 2792 2792 2791 2790 2788 2786 2785 2785 2785 2785 2784 2782 2781 2780 2779 2778 2777 2777 2776 2776 2775 2775 2775 2774 2774 2773 2773 2772 2771 2770 2769 2768
2886 2885 2883 2882 2881 2879 2877 2876 2874 2873 2871 2870 2868 2866 2865 2863 2861 2860 2859 2857 2856 2854 2852 2850 2848 2847 2846 2845 2844 2842 2841 2839 2837 2835 2833 2832 2830 2828 2826 2823 2821 2818 2816 2814 2812 2811 2809 2806 2804 2801 2799 2796 2794 2791 2790 2790 2789 2788 2787 2785 2783 2782 2782 2782 2781 2780 2778 2777 2776 2776 2774 2773 2773 2772 2772 2771 2771 2771 2771 2770 2769 2768 2768 2767 2766 2765
2885 2883 2881 2880 2879 2877 2876 2874 2873 2871 2870 2868 2866 2864 2863 2861 2859 2857 2856 2855 2853 2852 2850 2848 2846 2845 2843 2843 2842 2841 2840 2837 2836 2834 2832 2830 2828 2826 2824 2821 2819 2817 2815 2812 2810 2808 2806 2805 2802 2800 2797 2795 2792 2790 2788 2787 2787 2787 2786 2784 2781 2779 2779 2779 2779 2778 2776 2775 2773 2772 2771 2770 2769 2769 2768 2768 2768 2767 2767 2766 2766 2765 2764 2763 2762 2761
2883 2881 2880 2879 2877 2876 2874 2873 2871 2870 2868 2866 2865 2863 2861 2859 2857 2856 2854 2852 2851 2849 2847 2846 2844 2842 2841 2840 2839 2839 2838 2836 2835 2832 2830 2828 2826 2824 2822 2820 2817 2815 2813 2810 2808 2805 2804 2802 2800 2798 2796 2793 2791 2789 2786 2785 2785 2785 2784 2782 2780 2778 2776 2775 2775 2775 2774 2772 2771 2770 2768 2767 2766 2765 2765 2764 2764 2764 2764 2763 2762 2762 2761 2760 2759 2758
2881 2880 2879 2877 2876 2874 2873 2871 2870 2868 2866 2865 2863 2862 2860 2858 2856 2854 2852 2850 2849 2847 2845 2843 2841 2840 2838 2837 2836 2835 2835 2834 2833 2831 2829 2827 2824 2822 2820 2817 2815 2813 2811 2809 2806 2803 2801 2799 2798 2796 2794 2792 2790 2787 2786 2784 2783 2782 2782 2781 2779 2777 2774 2772 2772 2771 2770 2769 2768 2767 2766 2764 2763 2762 2761 2761 2761 2761 2760 2760 2759 2758 2758 2757 2756 2755
2880 2879 2877 2876 2874 2873 2871 2870 2868 2866 2865 2864 2862 2861 2859 2857 2855 2853 2851 2849 2847 2845 2843 2841 2839 2837 2836 2834 2833 2832 2831 2830 2830 2829 2827 2825 2823 2821 2818 2816 2813 2811 2809 2807 2805 2802 2800 2797 2795 2794 2792 2791 2789 2787 2785 2783 2781 2780 2779 2778 2776 2775 2773 2771 2770 2768 2767 2766 2765 2764 2763 2761 2760 2759 2758 2757 2757 2757 2757 2756 2756 2755 2754 2754 2753 2752
2879 2877 2876 2874 2873 2871 2870 2868 2867 2865 2864 2862 2861 2859 2858 2856 2854 2852 2850 2847 2845 2843 2841 2839 2837 2835 2833 2831 2830 2828 2827 2826 2826 2825 2824 2823 2821 2819 2816 2814 2812 2810 2807 2805 2803 2801 2798 2796 2794 2792 2790 2789 2787 2786 2784 2782 2780 2778 2776 2775 2773 2772 2770 2769 2768 2766 2765 2763 2762 2761 2760 2759 2757 2756 2755 2754 2754 2754 2754 2753 2753 2751 2751 2750 2749 2748
2877 2876 2874 2873 2871 2870 2869 2867 2866 2864 2862 2861 2860 2858 2856 2855 2852 2850 2848 2846 2844 2841 2839 2837 2836 2833 2831 2829 2827 2826 2824 2822 2821 2821 2820 2819 2818 2816 2814 2812 2810 2808 2805 2803 2801 2799 2797 2795 2793 2791 2789 2787 2785 2783 2782 2781 2779 2776 2774 2772 2770 2769 2767 2766 2765 2764 2762 2761 2759 2758 2757 2756 2754 2753 2751 2751 2751 2751 2751 2750 2750 2748 2747 2746 2745 2744
2876 2875 2873 2871 2870 2869 2867 2866 2864 2863 2861 2860 2858 2857 2855 2853 2851 2849 2846 2844 2842 2840 2837 2835 2833 2831 2830 2828 2826 2824 2821 2820 2818 2817 2816 2814 2813 2812 2811 2809 2807 2805 2803 2801 2799 2797 2795 2793 2792 2790 2788 2786 2783 2781 2779 2778 2776 2774 2771 2769 2767 2765 2764 2762 2761 2761 2759 2758 2756 2755 2754 2753 2751 2750 2749 2748 2747 2747 2747 2747 2746 2745 2744 2743 2741 2740
2875 2873 2872 2870 2869 2867 2866 2865 2863 2861 2860 2858 2857 2855 2854 2852 2850 2847 2845 2842 2840 2838 2836 2833 2831 2829 2827 2826 2824 2822 2820 2818 2816 2814 2813 2811 2809 2808 2806 2805 2803 2801 2800 2798 2796 2795 2793 2791 2790 2789 2787 2784 2781 2778 2776 2774 2773 2771 2769 2766 2764 2762 2760 2759 2758 2757 2756 2755 2754 2753 2752 2751 2749 2747 2746 2745 2744 2743 2744 2743 2743 2742 2741 2739 2738 2737
2874 2872 2871 2869 2868 2866 2865 2863 2862 2860 2859 2857 2855 2853 2852 2850 2848 2846 2843 2841 2838 2836 2834 2831 2829 2827 2825 2823 2821 2820 2818 2816 2814 2812 2811 2809 2807 2805 2803 2801 2799 2797 2796 2794 2793 2791 2790 2788 2787 2786 2785 2782 2779 2776 2773 2771 2769 2767 2766 2764 2762 2760 2758 2756 2755 2754 2753 2752 2751 2750 2749 2748 2747 2745 2744 2742 2740 2740 2740 2740 2739 2739 2738 2736 2735 2734
2873 2871 2870 2869 2867 2866 2864 2862 2861 2859 2857 2856 2854 2852 2850 2848 2846 2844 2842 2839 2837 2835 2832 2830 2828 2826 2823 2821 2820 2818 2816 2814 2812 2810 2809 2807 2805 2803 2801 2799 2797 2795 2793 2791 2789 2787 2786 2784 2782 2782 2782 2781 2778 2775 2771 2769 2766 2764 2763 2761 2760 2759 2756 2755 2753 2752 2751 2750 2749 2747 2746 2745 2744 2742 2741 2739 2737 2736 2736 2736 2736 2736 2735 2734 2732 2731